FW7889 Weather Reports


Display with metric or nautical units.
time (UTC)temp
F
wind
direction
speed
MPH
gust
MPH
rain 1hr
in
rain 24hr
in
rain mn
in
humidity
%
barometer
mb
20220813120113 56 349 0.0 1.0 0.00 0.00 0.00 89 1074.9
20220813115112 55 328 0.0 0.0 0.00 0.00 0.00 90 1074.7
20220813114112 54 288 0.0 1.0 0.00 0.00 0.00 91 1074.4
20220813113111 54 297 1.0 1.0 0.00 0.00 0.00 90 1074.4
20220813112111 53 284 0.0 0.0 0.00 0.00 0.00 93 1074.6
20220813111110 52 288 0.0 1.0 0.00 0.00 0.00 94 1074.7
20220813110109 53 288 0.0 0.0 0.00 0.00 0.00 93 1074.6
20220813105109 52 286 0.0 0.0 0.00 0.00 0.00 96 1074.7
20220813104107 51 280 0.0 0.0 0.00 0.00 0.00 99 1074.7
20220813103107 51 290 0.0 1.0 0.00 0.00 0.00 99 1074.8
20220813102106 50 308 0.0 1.0 0.00 0.00 0.00 99 1074.8
20220813101106 50 285 0.0 0.0 0.00 0.00 0.00 99 1074.8
20220813100105 50 285 0.0 1.0 0.00 0.00 0.00 99 1074.8
20220813095106 50 287 0.0 1.0 0.00 0.00 0.00 99 1074.9
20220813094105 50 293 1.0 1.0 0.00 0.00 0.00 99 1074.7
20220813093106 50 277 0.0 0.0 0.00 0.00 0.00 99 1074.6
20220813092105 50 281 0.0 0.0 0.00 0.00 0.00 99 1074.6
20220813091104 50 282 0.0 0.0 0.00 0.00 0.00 99 1074.6
20220813090104 50 285 0.0 0.0 0.00 0.00 0.00 99 1074.7
20220813085104 50 282 0.0 0.0 0.00 0.00 0.00 99 1074.6
20220813084102 50 291 0.0 0.0 0.00 0.00 0.00 99 1074.5
20220813083102 50 290 0.0 0.0 0.00 0.00 0.00 99 1074.4
20220813082102 50 285 0.0 1.0 0.00 0.00 0.00 99 1074.5
20220813081101 49 284 0.0 0.0 0.00 0.00 0.00 99 1074.4
20220813080100 49 285 0.0 0.0 0.00 0.00 0.00 99 1074.3
20220813075059 49 285 0.0 0.0 0.00 0.00 0.00 99 1074.1
20220813074057 49 285 0.0 0.0 0.00 0.00 0.00 99 1074.2
20220813073056 49 285 0.0 0.0 0.00 0.00 0.00 99 1074.2
20220813072056 49 290 0.0 0.0 0.00 0.00 0.00 99 1073.9
20220813071055 49 285 0.0 0.0 0.00 0.00 0.00 99 1073.9
20220813070054 49 285 0.0 0.0 0.00 0.00 0.00 99 1073.9
20220813065053 50 285 0.0 0.0 0.00 0.00 0.00 99 1073.6
20220813064053 50 285 0.0 0.0 0.00 0.00 0.00 99 1073.7
20220813063052 51 286 0.0 0.0 0.00 0.00 0.00 99 1073.5
20220813062053 51 285 0.0 0.0 0.00 0.00 0.00 99 1073.7
20220813061051 51 286 0.0 0.0 0.00 0.00 0.00 99 1073.5
20220813060049 51 285 0.0 0.0 0.00 0.00 0.00 99 1073.5
20220813055048 51 285 0.0 1.0 0.00 0.00 0.00 99 1073.5
20220813054047 51 285 0.0 1.0 0.00 0.00 0.00 99 1073.5
20220813053047 52 285 0.0 0.0 0.00 0.00 0.00 99 1073.5
20220813052047 52 285 0.0 0.0 0.00 0.00 0.00 99 1073.7
20220813051046 52 285 0.0 0.0 0.00 0.00 0.00 99 1073.9
20220813050046 52 281 0.0 0.0 0.00 0.00 0.00 99 1074.0
20220813045044 52 281 0.0 0.0 0.00 0.00 0.00 99 1073.8
20220813044044 52 281 0.0 1.0 0.00 0.00 0.00 99 1074.0
20220813043044 52 285 0.0 0.0 0.00 0.00 0.00 99 1073.7
20220813042042 52 273 0.0 0.0 0.00 0.00 0.00 99 1074.0
20220813041042 52 278 0.0 0.0 0.00 0.00 0.00 98 1073.8
20220813040041 52 281 0.0 0.0 0.00 0.00 0.00 98 1073.8
20220813035041 52 286 0.0 0.0 0.00 0.00 0.00 98 1073.9
20220813034040 52 285 0.0 0.0 0.00 0.00 0.00 98 1074.0
20220813033040 51 286 1.0 1.0 0.00 0.00 0.00 98 1074.1
20220813032040 51 293 1.0 1.0 0.00 0.00 0.00 98 1074.1
20220813031040 51 294 1.0 1.0 0.00 0.00 0.00 98 1074.0
20220813030039 51 300 1.0 1.0 0.00 0.00 0.00 98 1074.0
20220813025038 51 292 1.0 1.0 0.00 0.00 0.00 98 1074.1
20220813024038 50 295 1.0 1.0 0.00 0.00 0.00 98 1074.0
20220813023037 51 291 1.0 1.0 0.00 0.00 0.00 97 1074.2
20220813022036 51 295 1.0 1.0 0.00 0.00 0.00 96 1074.2
20220813021034 52 305 1.0 2.0 0.00 0.00 0.00 96 1073.9
20220813020034 52 300 1.0 1.0 0.00 0.00 0.00 96 1073.9
20220813015035 52 325 1.0 1.0 0.00 0.00 0.00 96 1073.8
20220813014035 51 291 1.0 1.0 0.00 0.00 0.00 96 1074.2
20220813013034 53 287 0.0 0.0 0.00 0.00 0.00 95 1074.2
20220813012034 53 305 1.0 1.0 0.00 0.00 0.00 95 1073.9
20220813011034 53 298 1.0 1.0 0.00 0.00 0.00 94 1074.1
20220813010034 53 299 1.0 1.0 0.00 0.00 0.00 93 1074.0
20220813005033 54 287 1.0 1.0 0.00 0.00 0.00 91 1073.9
20220813004032 55 285 0.0 1.0 0.00 0.00 0.00 90 1074.1
20220813003032 56 285 1.0 1.0 0.00 0.00 0.00 88 1073.9
20220813002031 57 291 1.0 1.0 0.00 0.00 0.00 82 1073.8
20220813001030 60 286 1.0 1.0 0.00 0.00 0.00 77 1073.7
20220813000028 61 295 0.0 1.0 0.00 0.00 0.00 73 1073.5
20220812235027 61 285 0.0 0.0 0.00 0.00 0.00 72 1073.6
20220812234028 62 274 0.0 0.0 0.00 0.00 0.00 70 1073.5
20220812233027 63 244 1.0 1.0 0.00 0.00 0.00 69 1073.6
20220812232027 64 79 3.0 5.0 0.00 0.00 0.00 66 1073.5
20220812231027 64 345 1.0 1.0 0.00 0.00 0.00 65 1073.0
20220812230026 64 308 1.0 1.0 0.00 0.00 0.00 63 1073.5
20220812225026 65 255 1.0 1.0 0.00 0.00 0.00 63 1073.0
20220812224026 65 12 1.0 1.0 0.00 0.00 0.00 60 1072.9
20220812223025 66 303 0.0 0.0 0.00 0.00 0.00 55 1072.7
20220812222024 67 295 1.0 2.0 0.00 0.00 0.00 57 1072.8
20220812221023 66 330 2.0 2.0 0.00 0.00 0.00 54 1072.6
20220812220021 65 298 1.0 1.0 0.00 0.00 0.00 57 1072.6
20220812215022 66 299 1.0 2.0 0.00 0.00 0.00 56 1072.5
20220812214022 68 309 4.0 5.0 0.00 0.00 0.00 53 1072.4
20220812213021 67 301 1.0 2.0 0.00 0.00 0.00 54 1072.6
20220812212021 67 302 3.0 3.0 0.00 0.00 0.00 56 1072.5
20220812211021 66 322 3.0 3.0 0.00 0.00 0.00 58 1072.5
20220812210021 66 292 2.0 2.0 0.00 0.00 0.00 56 1072.5
20220812205021 67 316 2.0 2.0 0.00 0.00 0.00 53 1072.4
20220812204021 67 311 3.0 3.0 0.00 0.00 0.00 54 1072.4
20220812203020 68 316 3.0 3.0 0.00 0.00 0.00 54 1072.5
20220812202019 68 294 2.0 2.0 0.00 0.00 0.00 51 1072.3
20220812201018 68 312 5.0 6.0 0.00 0.00 0.00 51 1072.3
20220812200018 68 351 1.0 2.0 0.00 0.00 0.00 53 1072.2
20220812195018 67 290 3.0 3.0 0.00 0.00 0.00 52 1072.3
20220812194018 68 326 3.0 3.0 0.00 0.00 0.00 52 1072.0
20220812193017 69 339 5.0 7.0 0.00 0.00 0.00 49 1072.5
20220812192016 68 320 5.0 8.0 0.00 0.00 0.00 50 1072.3
20220812191016 67 303 3.0 5.0 0.00 0.00 0.00 52 1072.5
20220812190017 67 310 3.0 3.0 0.00 0.00 0.00 53 1072.5
20220812185015 68 294 3.0 3.0 0.00 0.00 0.00 52 1072.5
20220812184015 68 344 1.0 2.0 0.00 0.00 0.00 53 1072.9
20220812183016 67 289 3.0 3.0 0.00 0.00 0.00 55 1072.8
20220812182014 66 324 2.0 2.0 0.00 0.00 0.00 58 1072.7
20220812181013 67 287 2.0 3.0 0.00 0.00 0.00 58 1072.8
20220812180013 66 313 4.0 6.0 0.00 0.00 0.00 59 1072.8
20220812175013 67 307 2.0 3.0 0.00 0.00 0.00 56 1072.9
20220812174012 65 310 3.0 3.0 0.00 0.00 0.00 61 1072.8
20220812173012 66 314 4.0 6.0 0.00 0.00 0.00 55 1073.0
20220812172011 66 301 5.0 6.0 0.00 0.00 0.00 61 1073.0
20220812171010 65 307 2.0 2.0 0.00 0.00 0.00 60 1072.9
20220812170008 64 287 0.0 1.0 0.00 0.00 0.00 62 1073.1
20220812165008 64 288 3.0 3.0 0.00 0.00 0.00 62 1073.1
20220812164008 65 292 3.0 5.0 0.00 0.00 0.00 59 1073.3
20220812163007 65 320 2.0 2.0 0.00 0.00 0.00 60 1073.1
20220812162007 64 326 3.0 3.0 0.00 0.00 0.00 59 1073.3
20220812161006 64 310 2.0 3.0 0.00 0.00 0.00 59 1073.6
20220812160006 63 311 5.0 6.0 0.00 0.00 0.00 64 1073.5
20220812155005 64 314 5.0 7.0 0.00 0.00 0.00 63 1073.5
20220812154006 64 300 5.0 6.0 0.00 0.00 0.00 61 1073.6
20220812153005 63 287 2.0 3.0 0.00 0.00 0.00 63 1073.7
20220812152005 63 319 1.0 2.0 0.00 0.00 0.00 64 1073.5
20220812151004 63 331 5.0 6.0 0.00 0.00 0.00 63 1073.3
20220812150004 62 288 2.0 2.0 0.00 0.00 0.00 64 1073.4
20220812145004 61 244 8.0 10.0 0.00 0.00 0.00 66 1073.4
20220812144004 62 286 1.0 1.0 0.00 0.00 0.00 68 1073.5
20220812143005 62 289 1.0 1.0 0.00 0.00 0.00 67 1073.4
20220812142005 62 315 3.0 3.0 0.00 0.00 0.00 66 1073.4
20220812141004 61 309 2.0 3.0 0.00 0.00 0.00 67 1073.6
20220812140004 61 300 2.0 2.0 0.00 0.00 0.00 68 1073.6
20220812135005 60 38 1.0 2.0 0.00 0.00 0.00 69 1073.4
20220812134003 60 314 3.0 3.0 0.00 0.00 0.00 73 1073.5
20220812133004 59 18 2.0 2.0 0.00 0.00 0.00 74 1073.4
20220812132003 59 4 3.0 5.0 0.00 0.00 0.00 75 1073.4
20220812131004 60 308 1.0 1.0 0.00 0.00 0.00 75 1073.3
20220812130003 59 279 0.0 0.0 0.00 0.00 0.00 75 1073.4
20220812125004 58 310 2.0 2.0 0.00 0.00 0.00 77 1073.6
20220812124002 58 334 0.0 0.0 0.00 0.00 0.00 82 1073.1
20220812123001 58 99 2.0 2.0 0.00 0.00 0.00 86 1073.1
20220812122000 57 59 1.0 1.0 0.00 0.00 0.00 87 1073.1
20220812120959 55 286 0.0 1.0 0.00 0.00 0.00 89 1073.0